• En España
  • Lista de países
  • Para 7 días
  • Temperatura del agua
  • Mapa Satelital
  • El tiempo en el mapa
  • Informadores
  • user-avatar
    Iniciar sesión

    Tiempo cada hora Zavire

    Hoy, 18 Junio, Lunes

    Tiempo Temperatura Precipitaciones Viento Presión Humedad
    00:00 +16°C° 0 mm 2 mps 744 mmHg 82%
    01:00 +16°C° 0 mm 2 mps 744 mmHg 83%
    02:00 +16°C° 0 mm 1 mps 743 mmHg 82%
    03:00 +16°C° 0 mm 1 mps 743 mmHg 82%
    04:00 +18°C° 0 mm 1 mps 743 mmHg 82%
    05:00 +18°C° 0 mm 1 mps 743 mmHg 82%
    06:00 +18°C° 0 mm 2 mps 743 mmHg 79%
    07:00 +19°C° 0 mm 2 mps 743 mmHg 76%
    08:00 +21°C° 0 mm 2 mps 743 mmHg 71%
    09:00 +23°C° 0,1 mm 2 mps 743 mmHg 67%
    10:00 +24°C° 0,1 mm 2 mps 743 mmHg 64%
    11:00 +25°C° 0,1 mm 2 mps 743 mmHg 60%
    12:00 +25°C° 0,5 mm 2 mps 743 mmHg 61%
    13:00 +26°C° 0,5 mm 2 mps 743 mmHg 63%
    14:00 +26°C° 0,5 mm 2 mps 742 mmHg 64%
    15:00 +25°C° 0,9 mm 2 mps 742 mmHg 67%
    16:00 +25°C° 0,9 mm 2 mps 742 mmHg 71%
    17:00 +25°C° 0,9 mm 1 mps 742 mmHg 74%
    18:00 +23°C° 0,2 mm 1 mps 742 mmHg 79%
    19:00 +22°C° 0,2 mm 1 mps 742 mmHg 83%
    20:00 +21°C° 0,2 mm 1 mps 741 mmHg 88%
    21:00 +20°C° 0 mm 1 mps 741 mmHg 89%
    22:00 +19°C° 0 mm 1 mps 741 mmHg 91%
    23:00 +18°C° 0 mm 1 mps 741 mmHg 93%

    Mañana, 19 Junio, Martes

    Tiempo Temperatura Precipitaciones Viento Presión Humedad
    00:00 +16°C° 0 mm 1 mps 741 mmHg 92%
    01:00 +16°C° 0 mm 1 mps 741 mmHg 92%
    02:00 +16°C° 0 mm 1 mps 741 mmHg 92%
    03:00 +16°C° 0 mm 1 mps 741 mmHg 92%
    04:00 +18°C° 0 mm 1 mps 741 mmHg 91%
    05:00 +18°C° 0 mm 1 mps 741 mmHg 91%
    06:00 +18°C° 0 mm 2 mps 741 mmHg 84%
    07:00 +20°C° 0 mm 2 mps 741 mmHg 78%
    08:00 +23°C° 0 mm 2 mps 741 mmHg 71%
    09:00 +23°C° 0,4 mm 2 mps 741 mmHg 68%
    10:00 +24°C° 0,4 mm 3 mps 741 mmHg 65%
    11:00 +25°C° 0,4 mm 3 mps 741 mmHg 62%
    12:00 +25°C° 0,1 mm 4 mps 740 mmHg 56%
    13:00 +26°C° 0,1 mm 4 mps 740 mmHg 51%
    14:00 +26°C° 0,1 mm 5 mps 740 mmHg 45%
    15:00 +26°C° 0 mm 5 mps 739 mmHg 47%
    16:00 +25°C° 0 mm 5 mps 739 mmHg 48%
    17:00 +25°C° 0 mm 5 mps 739 mmHg 49%
    18:00 +22°C° 0 mm 4 mps 739 mmHg 57%
    19:00 +20°C° 0 mm 4 mps 739 mmHg 64%
    20:00 +19°C° 0 mm 3 mps 739 mmHg 72%
    21:00 +18°C° 0,1 mm 3 mps 739 mmHg 76%
    22:00 +17°C° 0,1 mm 4 mps 739 mmHg 80%
    23:00 +15°C° 0,1 mm 4 mps 739 mmHg 84%

    Pasado mañana, 20 Junio, Miércoles

    Tiempo Temperatura Precipitaciones Viento Presión Humedad
    00:00 +14°C° 0 mm 4 mps 739 mmHg 86%
    01:00 +13°C° 0 mm 3 mps 739 mmHg 88%
    02:00 +12°C° 0 mm 3 mps 740 mmHg 90%
    03:00 +12°C° 0 mm 3 mps 740 mmHg 88%
    04:00 +12°C° 0 mm 3 mps 740 mmHg 87%
    05:00 +11°C° 0 mm 3 mps 741 mmHg 86%
    06:00 +13°C° 0 mm 4 mps 741 mmHg 75%
    07:00 +15°C° 0 mm 4 mps 741 mmHg 65%
    08:00 +17°C° 0 mm 5 mps 741 mmHg 54%
    09:00 +19°C° 0 mm 5 mps 741 mmHg 50%
    10:00 +20°C° 0 mm 5 mps 741 mmHg 46%
    11:00 +21°C° 0 mm 6 mps 741 mmHg 42%
    12:00 +22°C° 0 mm 6 mps 740 mmHg 41%
    13:00 +22°C° 0 mm 6 mps 740 mmHg 41%
    14:00 +23°C° 0 mm 6 mps 740 mmHg 40%
    15:00 +22°C° 0 mm 6 mps 740 mmHg 42%
    16:00 +22°C° 0 mm 5 mps 740 mmHg 43%
    17:00 +21°C° 0 mm 5 mps 740 mmHg 45%
    18:00 +20°C° 0 mm 4 mps 740 mmHg 52%
    19:00 +18°C° 0 mm 3 mps 740 mmHg 59%
    20:00 +17°C° 0 mm 3 mps 740 mmHg 66%
    21:00 +15°C° 0 mm 2 mps 741 mmHg 68%
    22:00 +14°C° 0 mm 2 mps 741 mmHg 70%
    23:00 +13°C° 0 mm 2 mps 741 mmHg 72%

    21 Junio, Jueves

    Tiempo Temperatura Precipitaciones Viento Presión Humedad
    00:00 +12°C° 0 mm 2 mps 741 mmHg 74%
    01:00 +12°C° 0 mm 2 mps 741 mmHg 75%
    02:00 +10°C° 0 mm 2 mps 741 mmHg 76%
    03:00 +10°C° 0 mm 2 mps 741 mmHg 74%
    04:00 +12°C° 0 mm 2 mps 741 mmHg 73%
    05:00 +12°C° 0 mm 2 mps 741 mmHg 71%
    06:00 +13°C° 0 mm 3 mps 741 mmHg 68%
    07:00 +14°C° 0 mm 3 mps 741 mmHg 64%
    08:00 +17°C° 0 mm 3 mps 741 mmHg 61%
    09:00 +17°C° 0,1 mm 3 mps 740 mmHg 65%
    10:00 +17°C° 0,1 mm 3 mps 740 mmHg 69%
    11:00 +17°C° 0,1 mm 3 mps 740 mmHg 73%
    12:00 +18°C° 0,1 mm 3 mps 740 mmHg 75%
    13:00 +18°C° 0,1 mm 2 mps 740 mmHg 78%
    14:00 +18°C° 0,1 mm 2 mps 739 mmHg 80%
    15:00 +19°C° 0,2 mm 2 mps 739 mmHg 77%
    16:00 +21°C° 0,2 mm 3 mps 739 mmHg 73%
    17:00 +22°C° 0,2 mm 3 mps 739 mmHg 69%
    18:00 +21°C° 0,1 mm 2 mps 739 mmHg 75%
    19:00 +20°C° 0,1 mm 2 mps 739 mmHg 81%
    20:00 +19°C° 0,1 mm 2 mps 739 mmHg 87%
    21:00 +18°C° 0 mm 2 mps 738 mmHg 90%
    22:00 +17°C° 0 mm 2 mps 738 mmHg 93%
    23:00 +16°C° 0 mm 2 mps 738 mmHg 96%

    22 Junio, Viernes

    Tiempo Temperatura Precipitaciones Viento Presión Humedad
    00:00 +16°C° 0 mm 2 mps 738 mmHg 95%
    01:00 +16°C° 0 mm 3 mps 737 mmHg 95%
    02:00 +16°C° 0 mm 3 mps 737 mmHg 94%
    03:00 +17°C° 0 mm 3 mps 737 mmHg 91%
    04:00 +17°C° 0 mm 4 mps 736 mmHg 89%
    05:00 +18°C° 0 mm 4 mps 736 mmHg 86%
    06:00 +19°C° 0 mm 5 mps 736 mmHg 78%
    07:00 +21°C° 0 mm 6 mps 735 mmHg 71%
    08:00 +23°C° 0 mm 6 mps 735 mmHg 64%
    09:00 +23°C° 0,3 mm 6 mps 735 mmHg 67%
    10:00 +24°C° 0,3 mm 6 mps 734 mmHg 71%
    11:00 +24°C° 0,3 mm 6 mps 734 mmHg 75%
    12:00 +23°C° 0,9 mm 6 mps 734 mmHg 79%
    13:00 +23°C° 0,9 mm 6 mps 734 mmHg 83%
    14:00 +23°C° 0,9 mm 5 mps 733 mmHg 88%
    15:00 +22°C° 1,3 mm 5 mps 733 mmHg 89%
    16:00 +22°C° 1,3 mm 5 mps 733 mmHg 91%
    17:00 +21°C° 1,3 mm 4 mps 733 mmHg 93%
    18:00 +21°C° 0,6 mm 3 mps 734 mmHg 93%
    19:00 +20°C° 0,6 mm 3 mps 734 mmHg 94%
    20:00 +19°C° 0,6 mm 2 mps 734 mmHg 94%
    21:00 +18°C° 0,8 mm 2 mps 734 mmHg 94%
    22:00 +19°C° 0,8 mm 1 mps 735 mmHg 95%
    23:00 +18°C° 0,8 mm 1 mps 735 mmHg 95%

    23 Junio, Sábado

    Tiempo Temperatura Precipitaciones Viento Presión Humedad
    00:00 +16°C° 1,3 mm 1 mps 735 mmHg 95%
    01:00 +16°C° 1,3 mm 1 mps 735 mmHg 95%
    02:00 +15°C° 1,3 mm 1 mps 735 mmHg 95%
    03:00 +15°C° 1,2 mm 1 mps 735 mmHg 96%
    04:00 +14°C° 1,2 mm 2 mps 735 mmHg 96%
    05:00 +14°C° 1,2 mm 2 mps 736 mmHg 97%
    06:00 +13°C° 1,4 mm 2 mps 736 mmHg 97%
    07:00 +13°C° 1,4 mm 2 mps 736 mmHg 96%
    08:00 +13°C° 1,4 mm 2 mps 736 mmHg 96%
    09:00 +13°C° 0,4 mm 2 mps 737 mmHg 93%
    10:00 +14°C° 0,4 mm 2 mps 737 mmHg 90%
    11:00 +14°C° 0,4 mm 2 mps 737 mmHg 87%
    12:00 +15°C° 0 mm 2 mps 737 mmHg 83%
    13:00 +16°C° 0 mm 2 mps 737 mmHg 79%
    14:00 +16°C° 0 mm 2 mps 737 mmHg 75%
    15:00 +17°C° 0 mm 2 mps 738 mmHg 73%
    16:00 +17°C° 0 mm 2 mps 738 mmHg 70%
    17:00 +18°C° 0 mm 2 mps 738 mmHg 67%
    18:00 +17°C° 0 mm 2 mps 738 mmHg 73%
    19:00 +16°C° 0 mm 2 mps 738 mmHg 78%
    20:00 +15°C° 0 mm 2 mps 738 mmHg 83%
    21:00 +14°C° 0 mm 2 mps 738 mmHg 86%
    22:00 +13°C° 0 mm 2 mps 738 mmHg 90%
    23:00 +12°C° 0 mm 2 mps 738 mmHg 93%
    Mostrar más